Radiation Dose at Monitoring Post of Fukushima Daini Nuclear Power Station
Date,Time,MP-1(microSv/h),MP-2(microSv/h),MP-3(microSv/h),MP-4(microSv/h),MP-5(microSv/h),MP-6(microSv/h),MP-7(microSv/h),Wind Direction,Wind Velocity(m/s),Rain
2013/02/11,00:00,1.1,0.7,1.1,1.0,0.9,0.5,0.4,west-northwest,10.0,No
2013/02/11,00:10,1.1,0.7,1.1,1.0,0.9,0.5,0.4,west-northwest,7.9,No
2013/02/11,00:20,1.1,0.7,1.1,1.0,0.9,0.5,0.4,west-northwest,10.6,No
2013/02/11,00:30,1.1,0.7,1.1,1.0,0.9,0.5,0.4,west-northwest,11.2,No
2013/02/11,00:40,1.1,0.7,1.1,1.0,0.9,0.5,0.4,west-northwest,11.2,No
2013/02/11,00:50,1.1,0.7,1.1,1.0,0.9,0.5,0.4,west,10.6,No
2013/02/11,01:00,1.1,0.7,1.1,1.0,0.9,0.5,0.4,west-northwest,10.3,No
2013/02/11,01:10,1.1,0.7,1.1,1.0,0.9,0.5,0.4,west-northwest,9.3,No
2013/02/11,01:20,1.1,0.7,1.1,1.0,0.9,0.5,0.4,west-northwest,8.5,No
2013/02/11,01:30,1.1,0.7,1.1,1.0,0.9,0.5,0.4,northwest,8.1,No
2013/02/11,01:40,1.1,0.7,1.1,1.0,0.9,0.5,0.4,north,6.2,No
2013/02/11,01:50,1.1,0.7,1.1,1.0,0.9,0.5,0.4,north,6.6,No
2013/02/11,02:00,1.1,0.7,1.1,1.0,0.9,0.5,0.4,north,9.0,No
2013/02/11,02:10,1.1,0.7,1.1,1.0,0.9,0.5,0.4,north,9.5,No
2013/02/11,02:20,1.1,0.7,1.1,1.0,0.9,0.5,0.4,north,8.1,No
2013/02/11,02:30,1.1,0.7,1.1,1.0,0.9,0.5,0.4,north-northwest,8.1,No
2013/02/11,02:40,1.1,0.7,1.1,1.0,0.9,0.5,0.4,northwest,8.7,No
2013/02/11,02:50,1.1,0.7,1.1,1.0,0.9,0.5,0.4,northwest,10.9,No
2013/02/11,03:00,1.1,0.7,1.1,1.0,0.9,0.5,0.4,northwest,10.3,No
2013/02/11,03:10,1.1,0.7,1.1,1.0,0.9,0.5,0.4,north-northwest,9.3,No
2013/02/11,03:20,1.1,0.7,1.1,1.0,0.9,0.5,0.4,north-northwest,8.2,No
2013/02/11,03:30,1.1,0.7,1.1,1.0,0.9,0.5,0.4,north-northwest,8.1,No
2013/02/11,03:40,1.1,0.7,1.1,1.0,0.9,0.5,0.4,north-northwest,8.1,No
2013/02/11,03:50,1.1,0.7,1.1,1.0,0.9,0.5,0.4,north-northwest,7.6,No
2013/02/11,04:00,1.1,0.7,1.1,1.0,0.9,0.5,0.4,north-northwest,7.0,No
2013/02/11,04:10,1.1,0.7,1.1,1.0,0.9,0.5,0.4,north-northwest,7.8,No
2013/02/11,04:20,1.1,0.7,1.1,1.0,0.9,0.5,0.4,north,8.2,No
2013/02/11,04:30,1.1,0.7,1.1,1.0,0.9,0.5,0.4,north-northwest,7.7,No
2013/02/11,04:40,1.1,0.7,1.1,1.0,0.9,0.5,0.4,north-northwest,5.9,No
2013/02/11,04:50,1.1,0.7,1.1,1.0,0.9,0.5,0.4,north,5.7,No
2013/02/11,05:00,1.1,0.7,1.1,1.0,0.9,0.5,0.4,north,5.7,No
2013/02/11,05:10,1.1,0.7,1.1,1.0,0.9,0.5,0.4,north-northwest,6.2,No
2013/02/11,05:20,1.1,0.7,1.1,1.0,0.9,0.5,0.4,north-northwest,7.2,No
2013/02/11,05:30,1.1,0.7,1.1,1.0,0.9,0.5,0.4,north-northwest,8.2,No
2013/02/11,05:40,1.1,0.7,1.1,1.0,0.9,0.5,0.4,north-northwest,8.1,No
2013/02/11,05:50,1.1,0.7,1.1,1.0,0.9,0.5,0.4,north-northwest,8.8,No
2013/02/11,06:00,1.1,0.7,1.1,1.0,0.9,0.5,0.4,north-northwest,7.7,No
2013/02/11,06:10,1.1,0.7,1.1,1.0,0.9,0.5,0.4,north-northwest,7.7,No
2013/02/11,06:20,1.1,0.7,1.1,1.0,0.9,0.5,0.4,north-northwest,6.9,No
2013/02/11,06:30,1.1,0.7,1.1,1.0,0.9,0.5,0.4,north-northwest,6.9,No
2013/02/11,06:40,1.1,0.7,1.1,1.0,0.9,0.5,0.4,north-northwest,5.8,No
2013/02/11,06:50,1.1,0.7,1.1,1.0,0.9,0.5,0.4,north-northwest,6.1,No
2013/02/11,07:00,1.1,0.7,1.1,1.0,0.9,0.5,0.4,north-northwest,6.2,No
2013/02/11,07:10,1.1,0.7,1.1,1.0,0.9,0.5,0.4,north,6.2,No
2013/02/11,07:20,1.1,0.7,1.1,1.0,0.9,0.5,0.4,north,7.1,No
2013/02/11,07:30,1.1,0.7,1.1,1.0,0.9,0.5,0.4,north,6.8,No
2013/02/11,07:40,1.1,0.7,1.1,1.0,0.9,0.5,0.4,north,5.6,No
2013/02/11,07:50,1.1,0.7,1.1,1.0,0.9,0.5,0.4,north,4.3,No
2013/02/11,08:00,1.1,0.7,1.1,1.0,0.9,0.5,0.4,north,3.9,No
2013/02/11,08:10,1.1,0.7,1.1,1.0,0.9,0.5,0.4,north-northwest,2.3,No
2013/02/11,08:20,1.1,0.7,1.1,1.0,0.9,0.5,0.4,north,3.6,No
2013/02/11,08:30,1.1,0.7,1.1,1.0,0.9,0.5,0.4,north-northwest,3.9,No
2013/02/11,08:40,1.1,0.7,1.1,1.0,0.9,0.5,0.4,north,3.3,No
2013/02/11,08:50,1.1,0.7,1.1,1.0,0.9,0.5,0.4,north-northeast,2.7,No
2013/02/11,09:00,1.1,0.7,1.1,1.0,0.9,0.5,0.4,north-northeast,4.3,No
2013/02/11,09:10,1.1,0.7,1.1,1.0,0.9,0.5,0.4,north-northeast,6.4,No
2013/02/11,09:20,1.1,0.7,1.1,1.0,0.9,0.5,0.4,north,4.0,No
2013/02/11,09:30,1.1,0.7,1.1,1.0,0.9,0.5,0.4,north,5.1,No
2013/02/11,09:40,1.1,0.7,1.1,1.0,0.9,0.5,0.4,north,5.5,No
2013/02/11,09:50,1.1,0.7,1.1,1.0,0.9,0.5,0.4,north-northeast,6.0,No
2013/02/11,10:00,1.1,0.7,1.1,1.0,0.9,0.5,0.4,north-northeast,5.0,No
2013/02/11,10:10,1.1,0.7,1.1,1.0,0.9,0.5,0.4,north,3.1,No
2013/02/11,10:20,1.1,0.7,1.1,1.0,0.9,0.5,0.4,northwest,3.4,No
2013/02/11,10:30,1.1,0.7,1.1,1.0,0.9,0.5,0.4,northwest,4.5,No
2013/02/11,10:40,1.1,0.7,1.1,1.0,0.9,0.5,0.4,west-northwest,6.8,No
2013/02/11,10:50,1.1,0.7,1.1,1.0,0.9,0.5,0.4,west-northwest,7.4,No
2013/02/11,11:00,1.1,0.7,1.1,1.0,0.9,0.5,0.4,west,11.1,No
2013/02/11,11:10,1.1,0.7,1.1,1.0,0.9,0.5,0.4,west-northwest,9.5,No
2013/02/11,11:20,1.1,0.7,1.1,1.0,0.9,0.5,0.4,northwest,9.5,No
2013/02/11,11:30,1.1,0.7,1.1,1.0,0.9,0.5,0.4,west-northwest,8.3,No
2013/02/11,11:40,1.1,0.7,1.1,1.0,0.9,0.5,0.4,west-northwest,7.4,No
2013/02/11,11:50,1.1,0.7,1.1,1.0,0.9,0.5,0.4,west,10.9,No
2013/02/11,12:00,1.1,0.7,1.1,1.0,0.9,0.5,0.4,west,11.1,No
2013/02/11,12:10,1.1,0.7,1.1,1.0,0.9,0.5,0.4,west-northwest,7.8,No
2013/02/11,12:20,1.1,0.7,1.1,1.0,0.9,0.5,0.4,west-northwest,8.9,No
2013/02/11,12:30,1.1,0.7,1.1,1.0,0.9,0.5,0.4,west-northwest,9.8,No
2013/02/11,12:40,1.1,0.7,1.1,1.0,0.9,0.5,0.4,west-northwest,13.7,No
2013/02/11,12:50,1.1,0.7,1.1,1.0,0.9,0.5,0.4,west-northwest,8.7,No
2013/02/11,13:00,1.1,0.7,1.1,1.0,0.9,0.5,0.4,west-northwest,10.6,No
2013/02/11,13:10,1.1,0.7,1.1,1.0,0.9,0.5,0.4,northwest,13.1,No
2013/02/11,13:20,1.1,0.7,1.1,1.0,0.9,0.5,0.4,west-northwest,10.4,No
2013/02/11,13:30,1.1,0.7,1.1,1.0,0.9,0.5,0.4,west-northwest,12.5,No
2013/02/11,13:40,1.1,0.7,1.1,1.0,0.9,0.5,0.4,west-northwest,14.0,No
2013/02/11,13:50,1.1,0.7,1.1,1.0,0.9,0.5,0.4,west-northwest,14.0,No
2013/02/11,14:00,1.1,0.7,1.1,1.0,0.9,0.5,0.4,west-northwest,13.6,No
2013/02/11,14:10,1.1,0.7,1.1,1.0,0.9,0.5,0.4,west-northwest,15.0,No
2013/02/11,14:20,1.1,0.7,1.1,1.0,0.9,0.5,0.4,west-northwest,12.3,No
2013/02/11,14:30,1.1,0.7,1.1,1.0,0.9,0.5,0.4,west-northwest,9.2,No
2013/02/11,14:40,1.1,0.7,1.1,1.0,0.9,0.5,0.4,west-northwest,12.2,No
2013/02/11,14:50,1.1,0.7,1.1,1.0,0.9,0.5,0.4,west,10.9,No
2013/02/11,15:00,1.1,0.7,1.1,1.0,0.9,0.5,0.4,west,12.3,No
2013/02/11,15:10,1.1,0.7,1.1,1.0,0.9,0.5,0.4,west-northwest,12.0,No
2013/02/11,15:20,1.1,0.7,1.1,1.0,0.9,0.5,0.4,west-northwest,8.9,No
2013/02/11,15:30,1.1,0.7,1.1,1.0,0.9,0.5,0.4,west-northwest,5.7,No
2013/02/11,15:40,1.1,0.7,1.1,1.0,0.9,0.5,0.4,west-northwest,7.2,No
2013/02/11,15:50,1.1,0.7,1.1,1.0,0.9,0.5,0.4,west-northwest,7.8,No
2013/02/11,16:00,1.1,0.7,1.1,1.0,0.9,0.5,0.4,northwest,7.4,No
2013/02/11,16:10,1.1,0.7,1.1,1.0,0.9,0.5,0.4,west-northwest,5.0,No
2013/02/11,16:20,1.1,0.7,1.1,1.0,0.9,0.5,0.4,northwest,6.1,No
2013/02/11,16:30,1.1,0.7,1.1,1.0,0.9,0.5,0.4,northwest,6.9,No
2013/02/11,16:40,1.1,0.7,1.1,1.0,0.9,0.5,0.4,north-northwest,5.8,No
2013/02/11,16:50,1.1,0.7,1.1,1.0,0.9,0.5,0.4,north,4.0,No
2013/02/11,17:00,1.1,0.7,1.1,1.0,0.9,0.5,0.4,north,3.9,No
2013/02/11,17:10,1.1,0.7,1.1,1.0,0.9,0.5,0.4,north-northeast,1.6,No
2013/02/11,17:20,1.1,0.7,1.1,1.0,0.9,0.5,0.4,north,3.1,No
2013/02/11,17:30,1.1,0.7,1.1,1.0,0.9,0.5,0.4,west-northwest,3.0,No
2013/02/11,17:40,1.1,0.7,1.1,1.0,0.9,0.5,0.4,northwest,3.9,No
2013/02/11,17:50,1.1,0.7,1.1,1.0,0.9,0.5,0.4,northeast,2.9,No
2013/02/11,18:00,1.1,0.7,1.1,1.0,0.9,0.5,0.4,north,1.9,No
2013/02/11,18:10,1.1,0.7,1.1,1.0,0.9,0.5,0.4,northwest,3.3,No
2013/02/11,18:20,1.1,0.7,1.1,1.0,0.9,0.5,0.4,north-northwest,3.7,No
2013/02/11,18:30,1.1,0.7,1.1,1.0,0.9,0.5,0.4,north-northwest,2.9,No
2013/02/11,18:40,1.1,0.7,1.1,1.0,0.9,0.5,0.4,west-northwest,1.4,No
2013/02/11,18:50,1.1,0.7,1.1,1.0,0.9,0.5,0.4,west-northwest,3.5,No
2013/02/11,19:00,1.1,0.7,1.1,1.0,0.9,0.5,0.4,west-northwest,4.6,No
2013/02/11,19:10,1.1,0.7,1.1,1.0,0.9,0.5,0.4,west-northwest,4.4,No
2013/02/11,19:20,1.1,0.7,1.1,1.0,0.9,0.5,0.4,northwest,2.8,No
2013/02/11,19:30,1.1,0.7,1.1,1.0,0.9,0.5,0.4,north-northwest,3.0,No
2013/02/11,19:40,1.1,0.7,1.1,1.0,0.9,0.5,0.4,northwest,3.9,No
2013/02/11,19:50,1.1,0.7,1.1,1.0,0.9,0.5,0.4,north,4.5,No
2013/02/11,20:00,1.1,0.7,1.1,1.0,0.9,0.5,0.4,north-northeast,4.1,No
2013/02/11,20:10,1.1,0.7,1.1,1.0,0.9,0.5,0.4,north,1.3,No
2013/02/11,20:20,1.1,0.7,1.1,1.0,0.9,0.5,0.4,north-northeast,2.1,No
2013/02/11,20:30,1.1,0.7,1.1,1.0,0.9,0.5,0.4,northeast,2.6,No
2013/02/11,20:40,1.1,0.7,1.1,1.0,0.9,0.5,0.4,north,2.3,No
2013/02/11,20:50,1.1,0.7,1.1,1.0,0.9,0.5,0.4,north-northeast,5.1,No
2013/02/11,21:00,1.1,0.7,1.1,1.0,0.9,0.5,0.4,northeast,4.0,No
2013/02/11,21:10,1.1,0.7,1.1,1.0,0.9,0.5,0.4,north-northeast,3.2,No
2013/02/11,21:20,1.1,0.7,1.1,1.0,0.9,0.5,0.4,north,2.6,No
2013/02/11,21:30,1.1,0.7,1.1,1.0,0.9,0.5,0.4,north-northwest,3.2,No
2013/02/11,21:40,1.1,0.7,1.1,1.0,0.9,0.5,0.4,north,3.6,No
2013/02/11,21:50,1.1,0.7,1.1,1.0,0.9,0.5,0.4,north,3.0,No
2013/02/11,22:00,1.1,0.7,1.1,1.0,0.9,0.5,0.4,north-northeast,3.2,No
2013/02/11,22:10,1.1,0.7,1.1,1.0,0.9,0.5,0.4,north,3.5,No
2013/02/11,22:20,1.1,0.7,1.1,1.0,0.9,0.5,0.4,north,3.6,No
2013/02/11,22:30,1.1,0.7,1.1,1.0,0.9,0.5,0.4,north,4.3,No
2013/02/11,22:40,1.1,0.7,1.1,1.0,0.9,0.5,0.4,north,4.1,No
2013/02/11,22:50,1.1,0.7,1.1,1.0,0.9,0.5,0.4,northeast,4.8,No
2013/02/11,23:00,1.1,0.7,1.1,1.0,0.9,0.5,0.4,north-northeast,3.7,No
2013/02/11,23:10,1.1,0.7,1.1,1.0,0.9,0.5,0.4,north-northeast,4.2,No
2013/02/11,23:20,1.1,0.7,1.1,1.0,0.9,0.5,0.4,north-northeast,4.1,No
2013/02/11,23:30,1.1,0.7,1.1,1.0,0.9,0.5,0.4,north,4.8,No
2013/02/11,23:40,1.1,0.7,1.1,1.0,0.9,0.5,0.4,north,4.7,No
2013/02/11,23:50,1.1,0.7,1.1,1.0,0.9,0.5,0.4,north-northeast,4.4,No
